Location: Chrome
(40.5765°N, 74.2163°W)
Time: 22:00:23
(UTC+00:00)

Atlas Centaur 2 - Pass Details

Date: 06 December 2019
Orbit: 459 x 1310 km, 30.4° (Epoch: 26 January)

Event Time Altitude Azimuth Distance (km) Brightness Sun altitude
Rises 23:12:34 0° 262° (W) 4,000 7.4 -18.9°
Reaches altitude 10° 23:15:32 10° 254° (WSW) 3,135 6.4 -19.5°
Maximum altitude 23:22:35 34° 193° (SSW) 1,978 4.3 -20.8°
Enters shadow 23:29:35 12° 134° (SE) 3,199 4.9 -22.1°
